Location: Days
(41.3591°N, 106.7339°W)
Time: 04:16:10
(UTC+00:00)

O/OREOS (USA 219) - Pass Details

Date: 01 July 2022
Orbit: 621 x 646 km, 72.0° (Epoch: 22 May)

Event Time Altitude Azimuth Distance (km) Brightness Sun altitude
Rises 07:14:22 0° 342° (NNW) 2,963 ? -25.5°
Reaches altitude 10° 07:16:43 10° 349° (NNW) 2,051 ? -25.5°
Maximum altitude 07:21:11 48° 64° (ENE) 847 ? -25.5°
Enters shadow 07:21:37 46° 83° (E) 866 ? -25.5°
